#timestamp,LO_Frequency,Hit,StdDev 
1459969215.8,286047000.6,N
1459969235.6,286047002.2,N
1459969255.5,286047001.9,N
1459969275.3,286047001.9,N
1459969295.1,286047001.0,N
1459969315.9,286047002.5,N
1459969335.7,286047004.0,N
1459969355.5,286047004.0,N
1459969375.4,286047002.4,N
1459969395.2,286047001.1,N
1459969415.0,286047000.4,N
1459969415.9,286047000.4,N
1459969435.7,286047003.9,N
1459969455.6,286047001.4,N
1459969475.4,286047003.7,N
1459969495.2,286047000.3,N
1459969515.1,286046999.3,N
1459969516.0,286046999.3,N
1459969535.8,286047004.2,N
1459969555.6,286047004.2,N
1459969575.5,286047002.1,N
1459969595.3,286047001.5,N
1459969615.1,286047003.9,N
1459969635.9,286047003.5,N
1459969655.7,286047001.8,N
1459969675.5,286047001.7,N
1459969695.4,286047002.2,N
1459969715.2,286046999.9,N
1459969735.8,286047000.6,N
1459969755.6,286047000.4,N
1459969775.4,286047000.3,N
1459969795.3,286046998.1,N
1459969815.1,286046999.8,N
1459969816.0,286046999.8,N
1459969835.8,286047004.2,N
1459969855.7,286047004.1,N
1459969875.5,286047001.6,N
1459969895.3,286047000.6,N
1459969915.2,286047004.2,N
1459969935.9,286047001.4,N
1459969955.7,286047003.6,N
1459969975.6,286047003.4,N
1459969995.4,286047001.8,N
1459970015.2,286047002.4,N
1459970035.0,286046999.9,N
1459970036.0,286046999.9,N
1459970055.8,286047000.8,N
1459970075.6,286047002.1,N
1459970095.5,286047006.9,Y
1459970115.3,286047004.0,P
1459970135.1,286047002.7,N
1459970155.8,286047002.4,N
1459970175.7,286047002.3,N
1459970195.5,286047003.7,Y
1459970215.4,286047000.5,P
1459970235.2,286047002.7,N
1459970255.0,286047001.9,N
1459970255.9,286047001.9,N
1459970275.8,286047002.6,Y
1459970295.6,286046998.3,P
1459970315.4,286046998.8,N
1459970335.3,286046996.5,N
1459970355.1,286047001.2,N
1459970356.0,286047001.2,N
1459970375.8,286047001.1,N
1459970395.6,286047002.8,N
1459970415.5,286047000.3,N
1459970435.3,286047000.6,N
1459970455.1,286047000.6,N
1459970475.9,286047000.8,N
1459970495.7,286047000.7,N
1459970515.5,286046998.8,N
1459970535.4,286046997.1,N
1459970555.2,286046996.8,N
1459970575.0,286046997.9,N
1459970575.9,286046997.9,N
1459970595.8,286046995.0,N
1459970615.6,286046997.9,N
1459970635.4,286046996.0,N
1459970655.3,286046993.5,Y
1459970675.1,286046995.3,P
1459970676.0,286046995.3,N
1459970695.8,286046993.7,P
1459970715.7,286046993.9,Y
1459970735.5,286046998.2,P
1459970755.3,286046996.7,N
1459970775.2,286046997.1,P
1459970795.9,286046997.3,Y
1459970815.7,286047000.4,P
1459970835.6,286047001.1,N
1459970855.4,286046998.8,N
1459970875.2,286046999.5,N
1459970895.1,286046997.0,N
1459970896.0,286046997.0,N
1459970915.8,286046997.0,N
1459970935.6,286046997.7,N
1459970955.5,286046997.3,N
1459970975.3,286046995.4,Y
1459970995.1,286046999.6,P
1459971015.9,286046998.8,N
1459971035.7,286046998.8,N
1459971055.5,286046999.1,N
1459971075.4,286047002.4,Y
1459971095.2,286047006.0,P
1459971115.0,286047003.4,N
1459971115.9,286047003.4,N
1459971135.8,286047003.5,N
1459971155.6,286047004.9,N
1459971175.4,286047007.0,Y
1459971195.3,286047004.4,P
1459971215.1,286047005.8,P
1459971216.0,286047005.8,P
1459971235.8,286047008.2,Y
1459971255.7,286047003.4,P
1459971275.5,286047003.4,P
1459971295.3,286047004.1,P
1459971315.2,286047002.5,Y
1459971335.9,286046997.8,P
1459971355.7,286046999.0,N
1459971375.6,286047000.7,N
1459971395.4,286046998.7,N
1459971415.2,286046998.4,N
1459971435.0,286046998.9,N
1459971435.9,286046998.9,N
1459971455.8,286046997.5,N
1459971475.6,286046998.7,N
1459971495.4,286046999.9,N
1459971515.3,286047000.0,N
1459971535.1,286046999.3,N
1459971555.8,286046996.5,N
1459971575.7,286046999.0,N
1459971595.5,286046996.8,N
1459971615.3,286046995.1,N
1459971635.2,286046999.5,N
1459971655.9,286046997.3,N
1459971675.7,286046997.7,N
1459971695.6,286046999.4,N
1459971715.4,286046995.3,N
1459971735.2,286046998.9,N
1459971755.0,286046998.2,N
1459971755.9,286046998.2,N
1459971775.8,286047000.7,N
1459971795.6,286047001.1,N
1459971815.4,286046999.2,N
1459971835.3,286047001.1,N
1459971855.1,286046998.8,N
1459971875.8,286046999.4,N
1459971895.7,286046998.3,N
1459971915.5,286047002.4,N
1459971935.3,286047001.7,N
1459971955.2,286047002.3,N
1459971975.9,286047000.8,N
1459971995.7,286047000.4,N
1459972015.6,286047000.0,N
1459972035.4,286046996.9,N
1459972055.2,286046996.8,N
1459972075.0,286046999.5,N
1459972076.0,286046999.5,N
1459972095.8,286046997.9,N
1459972115.6,286046996.9,N
1459972135.4,286046999.4,N
1459972155.3,286046996.8,N
1459972175.1,286046997.3,N
1459972195.8,286046994.0,Y
1459972215.7,286046994.0,P
1459972235.5,286046999.0,N
1459972255.3,286047000.9,N
1459972275.2,286047002.5,N
1459972295.0,286047005.7,N
1459972295.9,286047005.7,N
1459972315.7,286047003.3,N
1459972335.6,286047000.4,N
1459972355.4,286047000.8,N
1459972375.2,286046998.4,N
1459972395.1,286047001.0,N
1459972396.0,286047001.0,N
1459972415.8,286046998.9,N
1459972435.6,286046997.3,N
1459972455.5,286046996.8,N
1459972475.3,286046996.5,N
1459972495.1,286046998.9,N
1459972515.9,286046994.9,N
1459972535.7,286046997.9,N
1459972555.5,286046997.7,N
1459972575.3,286046995.1,N
1459972595.2,286046994.0,N
1459972615.0,286046996.4,N
1459972615.9,286046996.4,N
1459972635.7,286046995.4,N
1459972655.6,286046995.4,N
1459972675.4,286046995.2,N
1459972695.2,286046993.6,N
1459972715.1,286046995.9,N
1459972716.0,286046995.9,N
1459972735.8,286046995.0,N
1459972755.6,286046996.4,N
1459972775.5,286046996.1,N
1459972795.3,286046994.1,N
